Theta_e
316 316 316 316 316 316 316 316 316 316 315 315 315 315 316 316 315 315 314 314 314 313 313 313 312 311 311 310 309 308 310 312 314 315 317 317 318 319 319 320 320 321 321 321 320 320 320 319 318 318 318 317 318 318 318 316 311 308 308 305 300 298 297 297 296 296 296 297 297 296 295 294 294 294 294 295 296 296 296 294 291 289 288 288 288
316 316 316 316 316 316 316 316 316 316 315 315 315 315 315 315 315 315 315 314 314 313 313 313 312 311 311 311 309 308 309 313 315 316 317 318 318 319 320 320 320 320 320 319 319 319 319 319 318 319 319 318 317 318 318 318 314 311 311 309 303 299 298 298 297 296 295 295 297 296 294 293 294 296 297 298 298 297 296 294 290 288 288 288 288
316 316 316 316 316 316 316 316 316 316 316 316 315 315 315 314 314 314 314 314 314 314 314 313 312 312 311 311 310 308 309 312 316 316 316 317 317 318 319 319 319 318 319 319 319 318 318 318 318 317 317 318 318 317 317 317 315 312 311 308 303 299 298 299 298 296 294 294 296 296 295 294 295 297 298 298 298 297 296 292 289 288 288 288 288
315 316 316 316 316 316 316 316 316 316 316 316 316 315 314 314 314 313 313 313 313 314 314 313 313 312 312 311 311 309 308 310 313 315 315 316 316 317 317 316 316 317 318 319 319 318 317 317 318 317 316 317 317 317 317 316 314 311 310 308 303 298 298 298 298 296 294 293 295 296 295 295 297 298 298 298 298 297 295 291 288 288 288 288 289
316 316 316 316 316 316 316 316 316 316 316 316 316 315 315 314 314 313 313 313 313 313 313 313 313 313 312 312 311 310 309 308 310 312 314 315 315 316 316 316 316 317 318 319 319 318 317 317 317 317 316 316 315 316 316 317 315 312 310 309 305 300 298 298 298 296 293 292 294 295 295 296 298 298 298 298 298 297 295 292 289 288 288 288 289
316 316 316 316 316 316 316 316 316 316 315 315 315 315 315 315 314 314 313 313 312 312 313 313 313 313 313 312 312 311 310 308 308 310 311 312 313 314 315 316 317 318 318 319 318 317 316 317 317 317 316 316 316 315 315 317 316 313 311 310 308 303 299 298 297 295 293 292 293 295 296 296 297 298 298 298 298 298 296 292 290 288 288 288 288
316 316 316 316 316 316 316 315 315 315 315 315 315 315 315 315 315 314 314 313 313 313 312 312 312 312 312 312 312 311 310 309 308 310 311 312 313 314 315 316 317 317 317 317 318 317 316 317 317 316 316 316 317 315 314 315 316 315 312 311 309 303 298 297 297 294 292 291 293 296 297 297 297 298 298 298 298 297 295 292 290 289 288 288 288
315 315 315 315 315 315 315 315 315 315 315 315 315 315 315 315 314 314 314 314 314 313 313 312 312 312 312 312 312 311 311 309 309 309 310 312 313 314 314 315 316 317 316 316 316 316 316 317 316 316 316 316 316 315 312 312 313 314 313 312 310 305 299 298 296 293 291 291 293 297 297 297 298 298 298 298 297 297 295 292 291 290 289 288 288
315 314 315 315 314 314 314 314 314 314 314 314 314 314 315 314 314 314 314 314 314 313 313 312 311 311 311 311 311 311 310 310 310 309 309 309 311 312 314 314 315 316 315 315 316 315 315 316 316 316 317 317 316 314 312 311 312 313 313 312 311 305 300 298 295 292 291 291 294 297 297 297 298 298 298 299 298 298 296 293 292 291 289 288 288
314 314 314 314 313 313 313 313 313 313 313 314 314 314 314 314 314 314 314 314 313 313 312 312 312 312 311 311 311 311 311 310 310 310 309 308 309 310 312 313 314 314 315 315 315 315 314 315 316 317 317 316 314 313 311 310 310 311 311 312 311 306 301 297 294 292 291 291 294 297 297 297 298 298 299 299 298 297 295 293 292 291 289 288 288
313 313 313 313 312 312 312 312 312 312 313 313 313 313 314 314 314 314 314 314 313 313 312 312 312 312 311 311 311 311 311 310 310 310 309 309 307 307 309 311 312 312 313 314 315 315 315 315 316 317 316 315 314 313 311 310 310 309 308 310 310 307 302 297 293 292 291 291 294 297 297 297 298 298 299 299 297 296 294 293 292 290 289 289 290
313 312 312 312 311 311 311 311 311 311 312 312 312 313 313 314 314 314 314 314 313 313 312 312 312 312 311 311 311 311 311 310 310 310 309 309 307 306 306 308 309 311 312 313 314 315 315 315 315 315 315 315 314 314 312 311 310 308 307 307 306 304 302 300 297 294 292 292 295 297 297 297 298 299 299 298 297 295 294 293 292 290 290 290 290
312 312 311 311 311 311 311 311 311 311 311 311 312 312 312 313 313 313 313 313 313 313 313 313 312 312 311 311 311 311 311 310 309 309 309 309 308 306 305 306 307 309 311 312 313 313 314 315 314 314 314 314 313 313 311 309 306 304 302 302 302 300 299 298 298 296 294 293 295 297 297 297 298 299 299 298 296 294 293 293 292 291 291 291 291
311 311 311 311 311 311 311 311 311 311 311 311 311 311 312 312 312 312 312 312 312 312 312 312 312 312 311 311 311 311 310 310 309 309 308 308 308 307 306 305 305 306 309 311 312 312 312 312 313 313 313 313 313 312 311 309 305 302 299 298 298 298 297 296 294 293 293 294 295 296 297 297 298 299 299 297 295 293 293 292 292 291 291 290 290
310 310 310 310 310 311 311 311 311 311 311 311 311 311 311 311 311 311 311 311 311 312 312 311 311 311 311 310 310 310 310 310 309 308 307 307 307 307 306 305 303 304 306 308 309 310 310 310 310 310 310 311 311 310 310 309 306 302 298 296 296 296 295 294 293 291 292 295 296 296 297 298 298 298 298 296 294 292 292 291 291 290 290 289 289
310 310 309 309 309 310 310 311 311 311 311 311 311 311 311 311 311 311 311 311 311 311 311 311 311 311 310 309 309 310 310 309 308 307 307 306 306 306 305 304 303 303 304 305 306 308 308 308 308 308 308 309 309 308 307 305 303 300 297 295 296 295 294 294 292 291 293 296 296 297 297 298 298 298 296 294 292 291 291 290 290 289 289 289 289
310 309 309 309 309 310 310 310 310 310 310 311 311 311 311 311 311 311 311 311 311 311 311 311 311 311 310 310 309 310 310 308 307 307 306 305 305 304 304 303 303 302 303 304 305 306 307 307 307 307 307 307 307 306 305 303 301 299 296 295 296 295 295 293 291 292 295 296 296 297 297 297 297 297 295 293 291 291 291 290 290 290 290 290 290
309 309 309 309 309 309 309 309 309 309 309 309 309 310 310 310 311 310 311 311 311 311 311 311 311 311 310 310 309 309 309 308 306 305 305 304 304 303 303 302 302 302 302 302 304 305 305 306 306 306 306 305 305 304 303 301 299 297 295 295 294 295 294 292 291 293 296 296 296 296 297 297 296 295 293 292 291 291 291 291 291 290 290 290 290
308 309 309 308 309 309 309 309 309 309 309 309 309 309 309 309 310 310 310 310 310 310 310 310 311 311 310 310 309 308 308 307 305 304 304 303 303 302 302 301 301 301 301 301 302 303 304 305 305 304 304 304 303 302 301 299 297 295 295 294 294 295 294 291 291 294 296 295 296 296 296 296 295 294 293 293 292 292 292 292 291 291 290 291 290
308 308 308 308 308 308 308 309 308 308 308 308 308 308 308 308 309 309 309 310 310 310 310 310 310 310 310 310 309 308 307 306 305 304 303 302 302 301 301 300 300 300 300 300 301 301 301 302 302 303 303 302 301 299 298 297 296 295 295 295 295 296 294 291 292 295 296 295 296 296 296 296 295 294 293 293 293 293 292 291 291 291 291 290 289
307 307 307 307 307 308 308 308 308 308 308 308 308 308 308 308 308 309 309 309 309 309 309 309 309 310 309 309 308 307 306 305 304 303 302 301 301 300 299 299 299 299 299 299 299 299 299 300 300 301 300 299 298 297 296 295 295 294 295 296 296 296 293 291 293 295 295 295 296 296 295 295 294 293 293 292 292 292 291 290 290 289 289 289 288
305 306 306 306 306 306 307 307 307 307 308 308 308 308 308 308 308 308 308 309 308 308 309 308 308 309 308 308 308 307 306 304 303 302 301 300 300 299 299 299 299 298 298 298 298 298 298 298 299 298 297 296 296 295 294 294 293 293 294 295 294 293 292 292 294 295 295 295 295 295 295 294 293 293 293 292 292 291 291 290 288 287 287 286 285
304 304 304 304 305 305 305 306 306 307 308 308 308 308 308 308 308 308 308 308 308 308 308 307 307 307 307 307 307 306 305 303 302 301 300 299 299 299 299 299 298 297 297 298 298 297 297 297 297 296 295 295 295 294 293 292 292 292 293 293 291 291 291 293 294 295 294 294 295 294 294 294 293 293 293 293 292 291 291 290 288 286 285 285 285
303 303 303 303 304 304 304 305 306 307 308 308 307 308 308 308 307 307 307 306 306 306 306 306 305 305 306 306 305 304 303 302 301 300 299 299 299 298 298 298 298 297 297 297 297 297 296 296 296 295 294 294 293 293 292 291 291 291 292 290 289 290 291 293 294 294 294 294 294 294 294 294 293 293 293 293 292 290 289 288 286 285 284 284 285
303 303 302 303 303 304 304 304 305 306 307 307 307 307 307 307 307 307 306 305 305 305 305 304 304 304 304 304 304 303 301 300 299 298 298 298 298 298 298 297 297 297 297 296 296 296 295 294 294 293 293 292 292 292 291 291 290 290 290 289 289 289 292 294 294 294 294 294 294 294 293 293 293 293 292 291 290 289 288 286 285 285 285 285 286
302 302 302 302 303 303 303 303 304 305 306 307 307 307 307 307 307 306 306 305 304 304 303 303 302 302 302 302 302 301 299 298 298 297 297 297 297 297 297 297 297 296 296 295 295 294 293 293 292 292 291 291 291 290 290 290 289 289 289 288 288 290 292 294 294 293 293 293 293 293 293 293 293 292 291 290 288 287 286 286 285 285 286 286 287
301 301 301 302 302 302 303 303 304 305 306 306 307 307 307 307 307 306 306 304 303 303 302 302 301 300 300 300 299 298 298 297 296 296 297 297 297 297 296 296 295 295 294 294 293 292 292 291 291 291 290 289 289 289 289 289 288 287 287 287 288 290 292 293 293 293 293 293 292 292 292 292 292 291 290 289 287 286 286 285 286 286 286 286 286
300 300 300 300 301 301 301 302 303 304 305 306 306 307 307 307 306 306 305 304 303 302 301 301 300 299 298 298 297 296 296 296 296 296 296 295 295 295 294 294 294 293 293 293 292 291 291 290 290 289 288 288 288 288 287 287 287 287 286 287 288 290 292 292 293 293 292 292 292 292 292 291 291 291 289 287 286 286 285 285 286 286 286 286 286
299 299 299 299 300 300 300 301 302 303 304 305 306 306 306 306 305 305 305 303 302 301 300 300 299 298 297 296 296 295 296 296 296 295 295 294 294 293 293 292 292 292 291 291 291 290 289 289 288 288 288 287 287 287 286 286 286 286 286 286 288 290 291 292 292 292 292 291 291 291 291 291 291 290 288 286 285 285 285 286 286 286 286 286 286
297 297 298 298 298 299 299 300 300 301 303 304 305 306 306 305 304 303 304 303 301 300 300 299 298 297 296 296 295 295 295 295 295 294 294 294 293 293 292 291 291 290 290 289 289 289 288 288 288 287 287 287 287 286 286 286 286 286 286 286 287 289 290 291 292 292 291 291 291 291 290 291 291 289 287 286 285 285 285 286 286 286 286 286 285
296 296 296 297 297 298 298 298 299 300 301 303 304 305 305 306 304 302 301 301 300 299 298 298 298 296 295 295 295 295 295 295 294 294 294 293 293 292 291 291 290 289 288 288 288 288 288 287 287 287 287 287 286 286 286 285 285 286 286 286 287 288 290 291 291 291 291 290 290 290 290 290 290 288 286 285 285 285 286 286 286 285 285 285 284
296 296 296 296 297 297 297 297 298 299 300 301 303 304 304 305 305 303 300 299 298 298 297 297 296 296 295 295 295 295 294 294 294 294 293 292 292 291 291 289 288 288 288 287 287 287 287 287 287 287 286 286 286 286 286 285 285 286 286 286 286 287 288 289 290 290 290 290 290 290 290 290 288 286 285 285 285 285 285 285 285 285 284 284 283
295 296 296 297 297 297 297 297 297 298 299 300 302 303 303 302 302 302 300 298 297 296 296 295 295 295 295 295 294 294 294 294 293 293 292 292 291 291 290 288 287 287 287 287 287 287 287 286 286 286 286 286 285 285 285 286 286 286 286 286 286 286 287 288 289 289 290 290 290 289 289 288 287 285 285 285 285 285 285 285 285 284 283 283 283
295 295 296 296 297 297 297 297 298 298 299 300 301 302 302 301 299 299 299 298 296 295 295 294 294 294 294 294 294 294 293 293 292 292 292 291 291 290 289 287 287 287 287 287 287 287 286 286 286 286 286 286 286 286 286 286 286 286 286 286 286 287 287 288 289 289 290 289 289 289 288 287 286 285 285 285 285 285 285 285 284 283 283 282 282
294 295 295 295 296 296 296 297 297 298 298 299 299 300 300 299 298 298 298 297 296 295 294 294 293 293 293 293 293 293 292 292 292 291 291 291 290 289 287 286 286 286 286 286 286 286 286 286 286 286 286 286 286 286 286 286 286 286 286 287 287 288 288 289 289 289 289 289 289 288 287 286 285 285 285 285 285 285 285 285 284 283 282 282 282
293 294 295 295 295 295 296 296 297 297 297 297 297 297 297 297 297 297 297 297 295 294 293 293 293 292 292 292 292 292 292 291 291 291 291 290 290 288 286 286 286 286 286 286 286 286 286 286 286 286 286 286 286 287 287 287 287 287 287 287 288 288 289 289 289 289 289 288 288 287 285 285 285 285 285 285 285 285 284 284 283 282 282 282 281
293 293 294 295 295 295 296 296 296 296 296 296 294 294 294 295 295 295 296 296 295 293 292 292 292 292 292 292 291 291 291 291 291 290 290 290 288 287 286 287 287 286 286 286 286 286 286 286 286 286 286 286 286 287 287 288 288 288 288 288 288 288 288 289 289 288 288 287 286 285 285 285 285 285 285 285 285 284 284 283 282 282 282 281 280
292 293 293 294 294 295 295 296 296 296 296 295 293 292 292 292 293 293 294 295 294 292 292 291 291 291 291 291 291 291 291 291 290 290 290 289 288 287 287 287 287 287 287 287 286 287 287 286 286 286 286 287 287 287 287 287 288 288 288 288 288 288 288 288 287 287 286 285 285 285 285 285 285 285 285 284 284 283 283 282 282 282 281 280 279
291 292 292 292 293 293 293 293 294 295 295 294 292 291 290 291 291 292 293 294 293 292 291 291 290 290 290 290 290 290 291 291 290 290 290 290 289 288 288 288 287 287 287 288 288 288 288 288 288 287 287 287 287 287 287 288 288 288 287 287 287 287 287 286 285 285 285 284 284 284 284 284 284 284 284 284 283 283 282 282 282 282 281 279 278
290 291 291 292 291 291 292 292 292 293 293 292 291 291 290 290 291 291 292 293 292 291 291 290 291 290 290 289 289 290 290 290 290 290 290 290 289 289 289 288 288 288 288 288 288 288 288 288 288 288 288 288 287 287 287 287 287 286 286 286 286 285 285 285 285 285 285 285 284 284 284 284 284 284 283 283 282 282 282 282 281 280 279 278 277
288 289 290 290 290 290 290 291 292 292 291 290 290 290 290 290 289 290 291 292 292 291 290 290 290 290 290 289 289 289 289 290 290 290 289 289 289 289 289 288 288 288 288 288 288 288 288 288 288 288 287 287 287 286 286 286 286 286 286 285 285 285 285 285 285 285 285 285 284 284 284 284 283 283 282 282 281 281 281 280 279 278 277 276 276
287 287 288 288 287 287 288 289 290 290 289 288 289 290 290 289 289 290 291 291 291 290 290 290 290 289 289 289 289 289 289 289 289 289 289 289 289 289 288 288 288 288 288 288 288 288 287 287 287 287 287 287 286 286 286 286 286 286 286 286 286 286 286 285 285 285 284 284 284 283 283 282 282 281 281 280 280 280 279 279 277 277 276 275 275
285 285 285 285 285 285 286 286 286 287 288 288 288 289 289 289 289 290 290 290 290 290 289 289 289 288 288 288 288 289 289 288 288 288 288 288 288 288 288 288 288 288 288 287 287 287 287 286 286 287 287 286 286 286 286 286 286 286 286 286 286 285 285 285 285 284 284 283 283 282 282 281 281 280 280 279 279 278 277 276 275 275 275 275 274
283 283 283 283 284 284 284 284 285 285 286 287 288 288 288 287 288 289 290 290 290 289 289 289 288 288 288 288 288 288 288 288 287 287 287 287 287 287 287 287 287 287 287 287 287 286 286 286 286 286 286 286 286 286 286 285 285 285 285 285 285 284 284 284 284 283 283 282 282 281 281 280 280 279 278 277 277 276 276 275 275 274 274 274 274
282 282 283 283 283 283 283 283 284 284 284 285 286 287 287 287 288 289 289 290 290 289 289 289 288 288 288 288 288 288 288 287 287 287 286 286 286 286 286 287 287 287 286 286 286 286 286 285 285 285 285 285 285 285 285 285 285 285 284 284 284 283 283 283 283 282 282 281 281 280 280 279 279 278 277 276 275 275 275 275 274 274 274 273 273
282 282 282 282 282 282 281 282 283 283 283 284 285 286 286 286 287 288 289 289 289 289 289 289 288 289 288 288 288 288 287 287 287 286 286 286 286 286 286 286 286 286 286 285 285 285 284 284 284 284 284 284 285 285 285 285 284 284 284 283 283 282 282 282 281 281 280 280 279 279 279 278 278 277 276 276 275 275 275 275 274 274 273 273 272
282 282 282 282 281 281 281 281 281 282 283 283 284 285 285 286 286 288 289 289 289 289 289 288 288 288 288 288 287 287 287 286 286 286 285 285 285 285 285 285 285 285 285 285 284 284 283 283 283 283 284 284 284 284 284 283 283 282 282 282 281 281 281 280 280 280 279 279 278 278 278 278 278 277 276 276 275 275 275 274 274 273 273 272 272
281 282 282 281 281 281 281 281 281 281 282 283 283 284 284 284 285 287 289 289 289 289 288 288 288 287 287 287 287 286 286 285 285 285 285 285 284 284 284 284 284 284 284 284 283 283 282 282 283 283 283 283 283 282 282 282 281 281 281 281 280 280 280 280 280 279 279 279 279 278 278 278 277 277 276 276 275 275 274 274 273 272 272 272 271
279 280 281 280 280 280 281 280 280 281 282 283 283 283 283 283 285 287 288 288 288 288 287 287 287 286 286 286 285 285 284 284 284 284 284 284 284 283 283 283 283 283 283 282 282 282 282 282 282 282 281 281 281 281 281 281 280 280 280 280 280 280 280 280 280 279 279 279 278 278 278 277 277 277 276 276 275 275 274 274 273 272 272 271 271
277 278 279 279 279 280 280 280 280 280 281 281 281 282 282 283 284 285 285 285 285 285 285 285 285 285 284 284 284 283 283 283 283 283 283 283 283 283 283 282 282 282 282 281 281 281 281 281 281 281 281 281 280 280 280 280 280 280 280 280 280 280 279 279 279 279 278 278 278 277 277 277 276 276 275 275 275 274 274 273 273 272 272 271 271
276 276 277 278 278 279 279 279 279 280 280 280 280 281 281 282 283 283 283 283 283 283 283 283 283 283 282 282 282 282 282 282 282 282 282 282 282 282 281 281 281 281 281 281 281 280 280 280 280 280 280 280 280 280 280 280 280 280 279 279 279 279 278 278 278 278 277 277 277 276 276 275 275 275 274 274 274 273 273 273 272 272 271 271 270
Wind_Speed
11 12 13 14 15 16 17 17 18 20 22 24 27 28 29 30 30 30 30 29 29 28 28 27 28 28 28 28 30 33 35 36 38 40 42 46 50 52 51 53 58 56 54 55 56 55 56 56 54 53 54 57 56 53 53 55 55 52 49 48 48 47 43 39 37 36 34 32 32 34 33 31 29 28 27 25 24 23 23 23 25 25 23 22 22
13 13 14 15 16 17 18 19 20 21 22 23 25 26 28 30 30 31 31 30 31 30 30 29 29 29 29 27 28 31 35 37 39 41 44 45 47 50 50 52 55 54 54 57 57 59 60 58 57 55 55 57 58 55 54 55 55 53 52 51 51 50 48 43 39 38 38 35 34 34 34 33 31 30 27 23 22 22 23 24 25 25 23 23 23
15 15 16 17 18 19 20 21 21 22 23 24 24 24 25 27 29 31 31 30 31 31 32 32 31 30 30 28 28 30 35 39 41 42 45 46 47 49 49 50 52 53 54 56 57 60 60 59 60 59 57 57 58 58 57 57 57 55 55 54 53 53 51 47 43 41 41 39 36 36 36 36 34 30 25 22 21 22 23 23 25 25 24 25 25
17 17 18 19 20 22 23 23 23 23 23 24 24 24 24 25 27 29 31 31 31 31 32 33 34 33 31 30 29 30 33 39 42 43 44 45 47 48 48 50 52 53 54 55 57 59 60 59 60 59 58 60 61 61 61 59 57 56 55 55 54 54 52 48 45 43 43 42 39 37 37 36 34 30 26 23 23 23 24 25 26 27 26 26 26
18 18 19 21 22 24 25 25 25 25 24 24 24 25 25 25 26 27 29 30 31 32 32 33 34 35 34 32 30 31 32 35 40 44 46 47 48 49 51 53 53 53 54 55 56 57 58 58 58 57 60 63 64 64 62 58 56 56 56 56 55 55 52 49 46 45 44 42 39 38 37 34 31 28 26 25 24 23 25 27 28 27 27 27 26
19 20 20 22 22 23 25 25 25 24 24 24 24 25 26 26 27 26 27 28 30 32 33 34 34 35 35 34 33 32 32 34 38 43 46 47 49 51 52 53 53 54 56 57 56 55 55 55 54 55 59 63 65 65 63 59 57 57 57 56 56 56 54 51 48 46 46 42 40 40 39 34 30 27 25 24 23 23 25 27 28 28 27 27 26
19 19 19 20 21 21 22 22 22 23 24 24 24 26 27 27 27 27 26 27 29 30 33 35 36 35 35 36 35 34 33 34 37 40 44 47 48 50 51 52 54 55 55 56 57 55 54 54 54 56 59 62 64 66 66 64 60 57 55 55 56 56 54 51 48 47 47 43 40 39 37 34 30 26 24 23 23 24 26 28 29 28 28 27 25
17 17 17 18 18 18 18 19 20 22 23 24 25 25 26 27 27 27 27 28 28 29 31 33 35 36 36 37 37 36 35 35 36 38 43 46 48 49 50 52 53 53 53 53 55 55 54 55 57 60 62 64 65 65 65 65 62 56 52 53 56 57 55 52 49 49 47 43 40 37 33 31 30 27 25 25 26 27 28 29 29 28 27 26 24
15 15 16 16 16 16 17 18 20 21 22 24 25 26 26 27 27 28 28 29 29 30 31 33 35 36 37 37 38 38 39 38 37 38 41 45 48 50 51 52 53 53 53 53 54 55 55 56 60 63 64 64 64 62 62 62 61 58 53 52 55 58 56 53 52 50 47 44 42 39 35 32 30 27 26 27 27 27 27 28 28 27 26 25 23
15 15 16 16 17 18 19 19 21 22 23 24 25 27 27 27 28 28 28 29 30 30 32 34 35 36 37 38 39 39 41 41 39 38 39 42 47 51 53 54 54 55 55 56 56 57 57 59 62 62 62 61 60 59 59 59 60 60 56 52 54 57 57 54 53 52 50 49 46 41 37 34 31 29 28 27 26 26 26 27 26 24 24 25 25
16 17 18 19 19 20 21 21 22 23 24 25 26 27 28 28 29 29 29 29 30 30 32 33 34 36 37 38 39 41 42 42 41 40 39 41 44 49 52 55 56 56 57 57 58 59 60 61 61 60 60 59 58 57 58 59 60 61 58 54 53 57 59 58 56 54 52 51 48 43 39 35 32 29 27 25 26 26 26 25 24 23 24 26 26
19 19 20 20 20 21 22 22 23 24 24 26 27 28 29 30 30 31 31 31 31 32 33 33 34 35 37 39 40 41 42 41 41 41 40 41 42 46 50 53 55 57 57 57 58 59 59 59 58 58 59 59 58 58 59 61 61 62 60 55 53 56 59 59 58 58 57 55 52 46 42 36 32 29 27 26 27 27 26 26 26 25 25 27 28
21 21 22 22 22 23 23 24 25 24 25 26 27 28 29 30 31 32 33 33 34 34 34 34 35 35 36 38 40 41 42 42 41 41 41 41 41 44 48 52 55 56 57 58 57 56 56 56 57 58 59 59 58 59 61 62 61 59 58 56 54 54 56 56 55 56 56 55 53 49 44 39 35 31 27 26 28 28 28 28 28 26 27 28 28
21 23 24 25 26 26 27 28 28 28 27 28 29 29 30 30 31 32 33 35 36 37 37 36 37 36 37 38 39 41 42 42 41 41 41 41 41 43 46 50 54 57 58 58 57 56 55 54 56 58 59 59 59 59 60 61 61 59 57 56 56 54 54 53 52 52 53 54 53 51 46 40 35 29 26 28 31 31 30 29 27 26 27 27 26
22 24 25 27 28 29 30 31 32 32 32 32 32 32 32 32 32 32 34 36 37 38 39 39 39 39 39 38 40 41 42 42 42 42 42 41 41 42 45 47 51 55 58 59 58 57 56 55 55 56 57 59 60 60 59 59 60 60 58 57 56 55 54 53 50 51 52 50 46 42 38 35 31 28 27 30 32 29 27 26 24 24 25 25 25
25 26 27 28 28 30 31 32 33 34 34 35 36 36 36 36 35 34 35 36 38 39 40 40 41 41 41 40 41 43 43 42 42 42 41 41 41 42 44 46 48 52 55 57 58 58 57 57 57 57 57 58 59 60 59 58 58 59 59 58 57 56 54 50 47 48 46 40 34 31 31 31 29 28 28 30 30 28 27 26 26 27 28 27 27
27 28 28 27 28 28 29 31 32 33 34 36 37 37 38 38 38 37 38 39 39 40 40 41 42 43 43 43 43 45 44 42 41 41 41 40 40 42 43 45 47 50 52 54 56 57 57 57 58 58 59 59 59 59 59 57 56 58 59 58 57 57 53 47 45 46 42 36 31 29 29 28 27 27 29 31 30 30 30 30 30 30 29 28 27
26 27 27 26 26 27 28 29 31 32 34 35 36 37 38 39 39 39 40 41 41 41 41 42 43 44 45 45 45 45 46 43 41 40 40 40 40 41 42 44 46 49 50 52 55 56 57 57 58 59 59 59 59 59 58 57 55 56 57 56 56 56 52 47 47 46 41 35 31 28 27 27 26 28 30 31 31 32 32 32 30 29 29 28 27
26 26 27 27 27 27 28 29 31 32 34 35 37 38 39 40 40 41 42 43 43 43 43 43 44 44 44 45 45 46 46 44 41 40 40 39 39 40 41 43 45 47 49 51 54 56 57 58 58 58 58 59 59 58 58 56 54 53 54 54 56 57 53 50 51 48 42 37 32 28 28 28 28 30 31 31 32 32 32 31 29 28 29 28 28
26 27 28 28 28 28 29 30 31 33 35 37 38 39 40 41 41 42 43 43 43 44 44 44 46 46 45 45 45 45 45 44 42 40 39 38 38 39 40 42 44 45 47 49 53 55 57 58 58 58 58 58 58 57 56 55 52 50 52 54 57 57 53 52 53 49 41 35 32 30 31 31 31 33 33 32 32 31 29 27 27 27 29 29 29
27 28 29 29 28 29 29 30 31 33 35 37 38 39 40 41 41 42 42 43 43 44 44 44 45 46 46 46 46 46 45 44 42 40 38 37 37 37 40 42 43 43 44 48 51 53 55 56 56 57 56 56 55 54 53 52 49 48 50 52 54 54 52 53 53 46 38 34 33 32 30 30 31 33 33 32 31 28 25 23 22 24 27 28 28
27 29 29 29 29 29 29 30 32 33 35 37 39 40 40 40 41 41 41 42 42 43 43 43 44 46 46 46 46 46 44 42 41 40 38 37 35 36 38 40 40 41 44 47 49 51 53 54 55 54 52 50 50 50 50 49 46 46 47 48 51 51 52 54 51 44 38 36 36 32 28 27 29 32 32 32 30 27 23 20 20 23 25 26 25
29 29 30 30 31 31 31 32 33 34 35 37 39 40 40 40 40 40 40 41 41 42 42 42 43 44 45 46 45 44 43 41 40 38 37 35 35 35 36 37 38 39 42 45 47 48 50 51 52 51 49 47 46 46 46 45 44 44 44 47 49 50 52 53 49 42 40 39 37 33 28 25 27 29 30 31 30 26 23 21 22 23 24 24 24
30 31 31 32 33 33 34 35 35 35 36 37 39 40 40 40 40 40 40 40 40 41 41 41 41 43 44 44 44 43 41 39 37 36 34 33 33 34 34 35 36 36 39 42 44 45 47 48 48 49 47 45 43 42 41 42 42 42 43 46 48 49 52 53 47 42 41 38 36 34 31 27 25 25 26 28 26 23 21 22 24 24 24 24 25
32 32 33 33 34 35 37 37 38 37 37 38 39 40 40 40 41 40 40 39 40 41 41 41 41 41 42 42 42 40 38 36 35 33 32 31 32 32 33 34 34 34 37 40 42 42 43 44 45 46 44 42 40 38 37 39 40 40 43 46 47 50 53 51 45 43 41 39 37 37 33 28 25 23 23 23 22 21 22 24 25 25 25 26 27
33 33 34 34 35 36 38 39 40 40 39 38 39 40 41 41 41 41 41 40 40 40 40 40 39 39 39 40 39 37 34 34 33 31 29 29 30 31 32 33 33 34 36 38 39 39 39 40 42 42 40 38 37 35 35 36 37 39 42 45 48 52 54 51 46 44 42 40 40 38 34 29 25 23 22 22 22 23 24 25 25 26 26 27 27
35 35 35 35 35 36 38 39 41 42 41 40 40 40 41 41 42 42 41 40 39 39 39 39 38 38 37 37 36 33 32 32 31 30 28 28 30 31 32 32 33 34 35 36 36 36 37 38 39 38 36 34 32 32 32 34 36 38 41 45 49 52 53 49 45 43 43 43 41 38 33 29 26 23 22 23 23 23 25 25 25 26 26 27 28
38 38 38 38 37 38 38 39 40 42 42 42 41 41 41 41 42 42 41 39 39 38 38 38 38 36 35 35 33 32 32 32 30 28 27 28 29 30 30 30 30 31 33 34 34 35 35 36 36 34 31 29 29 30 31 34 37 39 42 45 47 49 49 46 43 42 44 43 39 36 33 29 25 24 23 23 23 24 24 25 25 26 27 27 28
42 42 41 41 41 41 41 41 41 42 43 43 43 42 41 40 41 42 41 39 38 37 37 37 36 34 33 33 32 32 33 33 30 27 27 28 29 29 28 27 27 27 28 30 32 33 34 34 33 31 29 28 29 31 33 35 37 39 43 45 45 46 47 45 43 43 44 41 37 34 32 29 26 25 24 24 24 24 25 25 25 26 27 28 28
44 44 44 44 43 43 43 43 43 43 43 44 44 43 42 40 39 40 40 39 37 36 35 36 34 32 32 32 31 30 32 33 31 29 28 28 28 27 25 24 22 22 24 27 30 32 33 32 31 30 30 30 32 33 35 36 38 39 43 45 45 45 43 42 43 45 44 39 35 34 31 29 27 26 25 25 25 25 25 25 26 27 27 27 27
44 45 45 44 44 44 44 44 44 44 43 44 44 44 43 41 39 38 38 38 37 35 34 33 32 30 30 31 30 30 31 32 32 31 29 28 27 25 22 20 19 19 22 26 29 30 31 31 30 29 30 31 34 35 36 37 37 39 42 45 47 47 43 41 43 45 42 37 34 33 31 30 28 26 25 25 25 25 25 26 27 27 27 27 26
43 44 44 44 44 44 44 44 44 44 44 44 44 44 43 42 41 39 36 35 35 34 32 30 29 27 28 29 29 30 30 30 31 31 29 26 24 21 18 17 16 17 19 24 27 29 29 29 29 29 30 32 34 36 36 36 37 38 39 42 46 48 47 45 45 44 40 36 34 33 32 31 28 25 25 26 25 25 26 27 27 27 26 26 26
42 43 44 44 44 44 44 44 44 44 44 44 44 44 43 42 42 40 37 34 33 32 31 29 27 26 27 28 29 29 29 29 29 29 27 24 21 17 14 15 16 16 18 23 26 27 27 27 27 28 30 32 33 34 34 34 35 36 37 39 41 45 47 46 44 41 37 35 34 33 32 29 27 25 26 26 26 26 27 27 27 26 26 26 26
42 43 44 44 44 45 45 44 44 44 43 42 43 44 43 41 39 38 37 35 33 31 29 27 26 26 27 27 27 27 27 26 26 26 23 21 18 14 13 15 17 17 18 22 25 26 26 26 26 27 29 30 31 32 32 32 33 34 35 37 39 41 43 42 40 38 36 35 34 33 30 28 26 26 27 27 27 27 28 27 27 26 26 26 25
44 45 45 45 45 46 46 45 45 44 42 41 41 41 41 39 37 35 35 34 32 30 29 27 26 26 25 24 24 24 24 24 23 21 19 17 14 12 15 18 19 18 19 22 23 24 24 24 24 26 27 28 28 29 29 30 31 33 35 37 38 39 39 38 36 35 35 34 33 31 28 27 27 27 27 27 28 28 28 27 27 26 26 26 25
45 46 46 46 46 46 46 46 45 44 42 40 39 38 38 36 34 33 32 31 29 29 29 27 25 24 22 21 21 21 21 20 19 17 16 14 12 14 19 21 21 21 22 22 22 22 22 22 23 24 25 26 27 27 27 27 29 31 33 35 36 36 36 35 34 33 32 31 30 28 27 27 27 27 28 28 28 28 27 27 26 26 25 25 25
45 45 45 45 45 45 45 45 45 44 42 39 37 36 35 33 31 30 29 28 26 26 27 25 23 21 20 18 18 18 17 16 14 12 11 11 12 17 20 21 20 21 22 22 21 20 19 20 21 23 24 24 25 25 26 26 27 28 29 31 32 32 32 31 30 29 28 27 27 27 27 28 28 28 28 29 29 28 27 26 26 25 25 25 24
43 43 43 44 44 44 44 44 43 42 41 39 37 34 33 32 29 27 25 24 23 24 24 23 21 19 18 16 15 15 14 12 11 11 10 10 14 18 20 19 19 19 20 21 20 19 18 18 19 20 20 21 21 22 23 23 24 24 25 26 27 27 27 26 26 25 25 26 26 27 27 27 27 28 28 29 28 27 26 26 26 26 25 24 24
43 43 42 42 41 41 42 41 41 40 40 38 36 33 32 31 29 25 22 20 20 21 22 21 19 18 17 15 14 13 13 12 12 11 11 11 15 17 18 18 18 18 18 18 17 16 15 14 14 15 16 16 17 18 18 19 19 20 21 21 22 23 24 24 25 25 25 26 26 27 27 27 28 28 28 27 27 26 26 27 27 26 25 24 24
42 42 42 41 40 39 39 38 38 38 37 35 33 32 31 30 27 24 20 18 17 19 20 19 18 16 15 14 14 13 12 12 12 11 11 11 13 14 14 14 15 16 16 16 15 14 13 12 12 12 13 13 14 15 15 16 17 18 19 20 21 22 23 24 24 25 25 26 26 27 27 27 27 26 26 26 26 26 27 27 26 25 23 22 21
40 41 40 39 38 37 36 36 36 35 33 30 30 30 29 27 26 23 19 16 16 18 18 17 16 14 13 12 12 12 11 11 10 10 10 11 11 12 12 12 12 12 13 13 13 13 12 12 11 12 12 13 13 14 15 16 17 18 19 20 21 22 23 23 24 25 25 26 26 26 26 25 25 25 25 25 25 26 26 26 24 23 21 21 20
38 39 39 37 35 34 33 33 33 31 28 26 27 28 27 25 23 20 16 14 13 15 15 15 14 13 11 10 10 10 10 9 9 9 10 10 11 11 11 11 11 11 12 12 12 12 12 12 12 12 13 14 14 15 16 17 18 19 19 20 21 22 22 23 23 24 24 25 25 24 24 24 24 24 24 25 25 25 25 24 23 22 21 21 21
35 35 35 34 32 31 30 30 30 28 26 24 25 26 25 24 21 17 13 12 11 11 11 11 11 10 9 9 9 9 8 8 9 9 10 10 10 10 11 11 12 12 12 12 12 13 13 13 13 13 13 14 15 15 16 16 17 17 18 19 19 20 21 22 22 23 24 24 23 23 23 24 25 25 25 24 24 23 23 22 22 22 22 22 21
32 31 31 30 30 29 28 28 26 25 24 23 23 23 24 23 20 15 11 9 8 8 7 7 7 7 7 8 8 8 8 8 9 9 9 9 9 9 10 10 11 12 12 12 13 13 14 13 13 13 13 13 14 14 15 15 15 16 17 18 19 20 21 21 22 22 22 23 23 23 24 25 24 24 23 23 22 22 21 21 21 22 22 22 22
29 28 28 28 26 25 24 23 22 21 20 20 20 21 22 21 18 13 9 7 6 5 5 4 5 6 7 7 7 8 8 9 9 9 10 10 10 10 10 10 10 11 12 12 13 14 14 14 13 13 13 13 13 14 14 15 16 16 17 18 18 19 19 19 20 19 20 20 21 21 22 22 22 22 22 22 21 21 21 21 22 23 23 22 22
26 25 25 25 23 21 19 18 17 17 17 17 17 18 19 18 14 9 6 5 4 4 4 4 5 6 7 7 7 8 9 9 10 10 10 11 11 11 10 10 10 11 11 12 13 13 13 13 13 13 13 13 13 14 14 15 15 16 17 17 17 17 17 17 16 16 17 18 18 19 19 20 20 21 22 22 22 22 22 24 26 26 26 24 23
24 22 22 23 22 19 17 16 15 14 13 13 13 14 15 14 10 6 4 4 4 4 5 5 5 6 7 7 8 8 9 10 11 11 11 11 12 12 12 11 11 11 11 11 11 11 11 12 12 12 12 13 13 13 13 14 14 15 16 16 16 16 16 16 16 16 16 17 19 20 21 21 21 22 22 23 24 25 25 27 28 28 27 26 26
22 21 20 20 20 18 16 15 12 10 9 8 8 10 11 10 7 4 4 4 4 4 4 5 5 6 6 7 8 9 10 10 11 11 11 12 12 12 13 12 11 11 11 10 11 11 11 12 12 12 12 12 12 13 13 14 14 15 15 16 16 17 17 18 18 18 18 19 20 21 22 22 23 23 24 25 26 27 28 29 29 28 28 28 28
20 20 19 18 17 15 14 12 10 8 5 4 4 6 7 6 5 4 4 5 5 5 5 5 6 7 7 8 8 9 10 10 10 11 11 11 12 12 12 12 12 11 11 11 12 12 12 12 12 12 13 13 13 14 14 14 15 16 16 16 17 17 18 19 19 19 19 20 20 21 22 22 23 24 25 26 27 28 28 29 29 28 28 28 28
19 18 17 16 14 12 11 10 9 7 5 3 2 3 3 3 3 3 4 4 4 5 5 6 6 7 7 8 8 9 9 9 9 9 9 10 10 11 11 11 11 11 11 11 12 12 12 12 12 12 13 13 13 14 14 15 15 16 16 16 17 18 18 19 19 19 20 20 21 21 22 22 23 24 25 25 26 26 26 26 26 26 27 27 26
18 16 15 13 12 11 10 9 8 7 6 4 4 3 2 1 0 1 2 2 3 4 4 5 6 6 7 7 7 7 8 8 8 8 8 8 9 9 10 10 10 10 10 10 10 10 10 11 11 11 12 12 13 13 14 14 15 15 16 16 17 18 18 19 19 20 20 21 21 22 22 22 23 23 23 24 24 24 24 24 24 24 24 24 24
Wind_Direction
331 325 322 318 313 310 308 306 301 294 287 281 278 277 276 277 278 279 279 279 278 279 281 282 284 284 280 272 262 251 243 239 240 243 246 248 250 251 251 253 255 255 256 257 257 255 254 252 251 250 249 247 245 244 246 247 244 241 239 239 238 238 237 238 241 241 238 235 230 225 220 214 211 211 214 220 227 234 237 235 232 233 233 234 234
322 317 316 313 310 307 303 300 298 296 293 289 285 281 278 279 280 281 282 283 284 283 283 283 283 284 281 274 262 251 243 240 241 243 246 247 250 252 252 254 257 257 256 257 257 254 252 251 249 247 247 247 247 245 246 248 247 242 239 237 235 234 236 238 240 239 235 231 226 220 214 209 210 212 214 222 230 236 238 234 231 232 232 232 233
312 310 310 309 307 301 296 295 294 294 293 293 293 290 287 285 282 280 281 283 285 286 286 286 284 283 281 277 268 255 245 241 241 246 248 248 248 250 252 255 258 260 259 259 259 257 254 252 251 248 246 247 247 246 245 247 246 242 239 237 233 233 234 236 239 238 234 231 226 218 211 207 209 213 217 223 230 233 234 230 229 231 230 230 232
305 305 305 303 300 295 292 292 292 292 293 293 295 297 296 293 288 283 281 280 281 284 286 287 286 284 281 278 274 265 253 243 242 246 249 251 252 253 254 257 258 259 260 261 262 261 257 255 255 253 249 247 246 245 244 245 245 243 240 237 234 233 234 236 238 236 233 231 225 216 211 209 210 211 214 220 225 230 230 226 227 229 229 230 232
300 301 300 298 296 292 291 292 293 294 294 293 294 296 297 295 292 289 286 282 280 281 283 284 285 284 284 282 278 272 264 251 244 245 247 250 252 253 255 258 258 258 259 261 263 262 259 258 258 256 253 249 247 246 244 245 246 244 241 238 235 234 235 236 238 235 231 230 225 214 208 208 209 208 212 220 225 229 229 226 226 229 230 232 234
298 299 299 297 295 293 293 294 295 296 294 292 293 293 293 294 294 293 291 288 284 280 280 281 282 283 285 285 282 278 272 260 250 246 245 247 249 252 256 259 258 258 259 260 262 262 260 260 261 260 258 255 253 251 247 245 245 244 242 239 236 234 234 234 234 232 229 228 224 216 207 205 207 208 213 221 229 232 229 226 226 228 231 233 236
295 298 298 297 297 297 297 299 298 297 295 294 293 292 292 293 294 295 294 291 287 283 281 280 281 283 284 284 284 281 277 269 260 250 244 244 248 251 254 257 258 260 260 260 261 261 261 262 264 264 263 261 259 256 251 245 244 245 245 242 238 234 233 233 231 227 225 223 221 216 209 205 207 211 217 224 229 230 226 222 223 227 230 234 237
294 298 298 299 300 301 302 301 300 299 299 298 297 296 295 295 295 295 294 291 288 286 285 283 282 282 282 282 283 282 278 273 268 259 249 245 247 250 252 254 257 260 261 261 261 260 261 263 264 265 265 265 263 260 255 248 245 245 247 245 239 234 232 232 228 223 221 219 216 212 210 209 210 212 217 223 228 230 225 221 222 225 229 233 236
301 302 302 304 306 307 306 303 301 300 299 299 299 299 299 299 298 296 294 292 290 289 287 286 284 283 283 282 282 281 278 276 274 268 258 250 248 248 251 253 256 259 261 263 263 262 262 262 263 264 265 265 264 262 258 253 249 247 249 247 241 233 230 228 224 219 218 217 214 211 209 210 212 214 220 229 237 238 229 221 222 226 230 233 234
308 310 313 315 314 312 310 306 302 300 300 299 299 300 301 301 299 297 295 293 292 291 290 288 287 286 285 284 282 281 279 279 278 276 270 261 253 250 250 253 255 258 260 262 263 263 262 261 263 265 265 263 263 261 258 254 251 249 250 251 246 235 228 224 221 218 216 214 213 212 211 211 214 220 230 239 243 235 223 218 221 224 228 231 232
316 319 320 320 318 316 314 310 306 304 303 302 301 300 300 299 298 297 296 296 295 294 292 290 289 288 287 286 284 282 281 281 280 279 276 271 262 256 252 252 253 256 258 260 261 262 262 262 263 263 262 261 261 260 257 254 252 250 249 250 249 240 228 221 217 217 216 215 214 214 214 215 218 225 235 240 235 226 218 216 217 218 223 229 232
323 325 325 323 322 322 319 315 313 312 311 309 307 305 302 301 301 300 300 300 298 296 293 292 291 290 289 287 286 284 283 283 282 280 278 275 270 263 258 255 253 253 255 257 260 261 262 263 264 264 263 262 260 258 255 253 251 249 247 246 245 240 232 225 221 218 216 214 213 213 214 216 220 228 236 235 225 218 215 214 214 215 220 228 233
325 326 325 323 323 322 320 317 317 318 318 315 313 311 309 309 308 307 306 304 301 298 297 296 294 292 290 288 287 287 286 284 283 282 279 278 275 270 265 260 257 255 254 257 260 260 261 262 263 264 265 264 261 259 256 252 249 246 242 239 236 233 232 231 230 227 222 217 215 216 216 218 222 229 237 231 218 212 213 213 214 215 220 228 235
321 320 319 319 319 318 317 316 317 319 318 317 314 313 312 312 310 309 308 306 303 302 301 299 297 295 292 290 290 289 288 286 285 283 281 280 278 275 271 266 261 258 256 258 261 262 262 263 263 263 263 263 262 260 258 256 250 244 238 234 231 228 227 228 229 230 230 228 225 222 219 220 224 232 236 226 214 210 212 214 216 218 223 230 235
316 313 312 314 314 313 313 314 315 316 316 315 314 313 313 311 309 307 304 301 301 301 300 299 298 297 295 293 291 290 289 288 287 285 283 281 280 278 276 271 266 261 258 258 261 262 264 265 265 265 264 263 261 259 259 257 251 243 235 230 228 224 222 223 224 226 228 227 224 220 219 222 229 236 232 220 211 209 212 215 217 220 225 230 234
310 308 307 308 307 307 308 308 308 309 310 309 308 309 309 307 306 305 301 298 297 297 297 297 297 297 296 293 291 289 289 288 287 286 284 283 281 278 277 274 271 266 261 260 261 262 263 264 265 266 265 264 262 260 258 255 249 242 234 229 227 225 222 221 221 221 220 216 214 217 222 228 235 236 225 212 207 207 210 213 215 219 224 230 235
306 305 305 305 303 303 303 303 303 303 303 303 302 302 303 302 302 302 300 298 297 296 296 295 295 295 294 293 291 290 290 289 287 286 285 282 280 278 276 275 273 270 266 264 263 264 264 264 265 265 264 263 262 259 257 253 247 240 234 230 227 225 221 217 213 211 209 207 211 220 227 232 235 229 216 208 207 209 212 215 218 223 228 234 240
305 305 305 304 303 304 303 302 302 301 301 301 301 300 299 298 298 298 298 297 296 296 295 294 293 293 292 292 292 291 291 289 288 286 284 282 279 277 277 276 274 271 269 267 265 265 265 265 265 264 263 262 261 259 256 252 245 238 233 228 224 222 218 210 205 203 203 205 210 217 226 231 229 221 214 211 212 216 220 222 225 230 235 240 245
304 304 304 304 304 305 305 304 304 304 303 303 302 301 300 298 298 297 297 296 295 294 293 292 291 291 291 291 291 291 290 290 288 286 284 282 279 277 276 275 274 272 270 268 267 266 265 264 264 263 263 262 260 258 256 250 243 237 233 227 224 223 216 205 201 202 203 203 208 218 227 229 223 217 216 217 219 223 226 229 232 236 241 246 250
303 302 303 304 305 306 307 307 307 307 306 305 304 302 301 300 299 297 297 296 296 295 294 292 291 290 289 289 289 288 289 289 288 286 285 282 280 278 276 274 273 273 272 270 268 267 266 265 264 263 263 261 258 256 253 250 246 241 235 230 228 225 214 202 201 204 203 205 214 224 229 226 219 216 217 220 222 225 228 232 237 241 246 250 252
304 304 304 305 307 307 307 307 307 307 307 307 305 303 303 302 301 299 298 297 297 296 296 294 292 291 290 288 287 287 287 288 287 286 284 282 279 277 274 274 274 274 273 271 269 267 266 266 266 266 263 260 258 256 253 252 248 242 239 237 234 226 211 200 200 202 203 210 220 225 227 224 220 220 221 223 224 226 229 235 243 248 251 252 253
304 305 306 307 307 307 306 306 305 305 306 308 307 305 305 305 304 303 301 299 297 297 296 295 294 292 291 289 288 287 287 287 287 286 284 282 280 276 273 274 275 274 272 271 269 268 268 268 269 268 264 261 260 257 255 253 248 244 242 238 231 221 207 199 200 202 204 212 218 220 222 223 223 225 228 228 230 231 234 243 252 254 253 252 253
304 305 306 307 308 308 307 305 304 303 305 307 306 306 307 307 307 306 304 301 299 297 296 295 294 293 292 290 289 288 287 287 287 287 286 284 282 279 276 275 274 272 271 271 272 271 270 270 270 268 265 263 261 257 254 252 249 246 241 232 222 213 204 200 202 204 207 212 216 218 223 227 229 232 236 237 236 236 242 253 260 258 254 253 253
304 305 306 306 307 306 305 304 303 302 304 305 306 306 306 307 308 308 307 304 300 298 297 295 292 291 291 290 289 288 289 289 289 288 288 287 284 281 279 276 273 271 270 271 272 271 271 271 270 268 266 263 261 258 255 252 249 244 236 225 215 208 203 202 204 206 208 212 217 222 228 234 240 244 247 245 241 241 248 256 258 256 252 251 251
304 305 305 306 306 306 305 304 303 302 301 303 304 304 304 305 306 308 307 305 302 300 298 295 292 290 290 289 288 289 291 292 292 291 291 289 285 282 280 278 275 273 270 270 271 271 271 270 268 266 265 263 261 258 253 249 245 239 230 219 210 205 203 204 205 206 209 216 223 227 231 239 249 254 251 245 241 243 250 253 252 250 248 248 249
304 304 303 304 305 305 304 304 302 301 299 299 299 300 301 302 304 305 306 305 304 301 298 295 292 289 288 288 288 290 292 292 292 293 292 289 286 284 282 280 278 275 272 270 270 269 268 266 265 264 262 260 258 255 250 243 236 230 222 213 207 205 205 206 206 209 214 222 228 230 234 243 253 255 248 241 240 245 250 251 249 247 246 247 249
304 303 302 303 303 303 304 303 302 300 297 295 294 295 296 298 300 301 303 303 302 300 298 295 292 289 287 288 288 289 290 289 289 291 292 290 289 288 286 283 280 275 271 267 265 263 262 261 261 261 259 257 255 252 245 233 223 216 210 206 205 206 207 209 211 215 220 226 230 233 238 246 253 254 247 241 242 247 249 247 245 245 246 247 247
304 302 302 303 303 303 304 304 303 301 298 294 291 291 293 295 296 298 300 301 300 299 297 294 292 290 288 288 288 288 287 285 286 290 291 291 291 290 288 286 283 278 272 267 262 259 257 255 255 253 251 248 243 238 229 220 214 209 203 202 205 208 210 212 214 218 223 229 232 237 242 247 253 253 248 243 244 248 247 244 243 244 245 245 246
303 302 302 303 303 304 304 305 305 304 301 297 293 291 291 293 295 295 297 297 297 296 295 293 292 290 288 286 286 285 285 286 288 289 290 289 289 289 287 286 284 281 274 267 259 253 250 248 247 244 241 235 229 223 215 210 210 208 202 201 205 209 211 213 214 218 225 230 235 240 243 248 254 253 248 245 246 246 244 242 243 243 242 243 246
302 301 302 303 303 304 304 305 306 307 305 301 296 292 290 291 292 293 294 294 294 293 293 292 291 289 286 284 283 283 284 286 287 287 286 285 286 285 284 282 280 276 269 261 254 248 244 242 241 238 235 228 221 215 209 206 207 206 202 201 204 208 210 212 215 221 228 234 240 244 246 251 256 254 248 246 246 244 243 242 242 241 241 243 245
301 300 300 301 301 302 303 303 305 306 306 303 298 294 291 289 289 290 291 292 292 292 291 291 289 286 283 283 283 282 283 284 285 284 283 282 281 279 276 274 271 265 259 252 247 242 240 239 237 234 230 224 217 212 208 205 205 204 203 204 206 208 210 213 217 223 231 239 243 245 247 253 256 252 248 248 247 245 243 241 240 240 242 243 245
300 299 299 299 299 299 300 301 302 304 305 304 299 294 290 289 288 288 289 290 291 291 290 288 286 283 281 281 281 281 281 281 282 281 279 276 273 270 266 262 257 254 251 247 244 240 238 236 234 230 225 220 214 211 208 206 206 206 206 207 209 211 213 216 221 227 236 242 244 245 249 253 254 250 247 248 246 244 242 240 240 241 243 244 245
298 298 297 297 297 297 298 299 299 300 302 302 299 294 290 289 289 289 290 290 289 288 288 287 286 283 282 282 282 281 280 280 279 278 275 270 266 261 251 242 241 243 240 237 236 236 234 232 230 228 224 218 213 211 209 208 209 209 209 210 211 212 213 218 224 232 240 243 245 247 251 252 250 248 247 247 245 243 241 240 241 242 243 245 246
298 297 297 296 297 297 298 298 297 297 297 298 296 293 289 287 288 289 289 289 288 288 287 287 287 285 284 283 282 281 280 279 277 274 269 263 257 247 227 220 228 237 238 235 233 232 230 228 226 226 224 220 216 214 212 211 211 210 210 210 211 212 216 222 229 236 241 243 245 248 249 248 246 246 246 245 243 242 240 240 241 241 242 245 247
300 299 298 298 297 298 298 298 297 295 294 294 292 289 286 285 284 284 285 286 287 287 287 286 286 286 284 282 281 280 278 275 270 265 259 252 241 219 202 204 211 216 222 230 233 231 229 228 225 223 223 221 218 217 216 215 213 212 211 212 214 219 224 229 235 239 242 244 247 247 246 245 245 245 245 244 243 242 241 240 240 241 243 246 249
300 299 298 298 298 298 298 297 296 295 295 293 289 285 282 280 279 279 280 279 280 283 286 286 286 285 283 282 282 280 274 269 264 256 250 244 222 196 193 201 206 205 210 219 226 228 229 228 226 224 223 223 222 221 222 222 221 219 219 220 223 227 232 236 239 242 243 244 245 244 244 244 244 243 242 242 241 241 240 240 240 241 244 247 249
300 299 298 298 298 297 297 296 295 295 295 293 288 284 280 277 275 274 274 273 275 280 284 285 285 284 283 282 281 276 268 261 254 246 242 229 202 192 198 206 208 206 208 214 221 224 225 226 226 226 226 226 227 227 228 229 230 229 229 230 232 235 238 241 243 244 243 243 242 242 242 242 242 240 239 239 238 237 238 238 239 242 244 245 247
300 299 298 298 298 297 296 295 294 294 294 292 287 283 281 278 276 274 271 271 274 278 280 281 282 283 282 281 276 268 259 250 238 229 223 206 192 196 206 212 211 210 210 214 220 226 227 228 230 231 232 233 234 234 235 236 236 235 235 236 238 239 240 241 241 241 240 240 241 241 241 240 239 238 237 236 235 236 237 238 241 243 244 245 246
300 299 298 298 298 298 297 296 295 294 292 289 284 282 282 280 277 274 271 271 274 277 277 278 278 279 279 274 266 258 251 242 232 223 216 204 198 203 210 213 213 216 218 220 226 231 234 234 234 233 233 234 234 233 234 235 235 235 236 237 237 237 236 236 236 236 237 237 238 238 237 236 236 236 235 235 235 236 238 241 243 245 246 245 247
302 301 299 298 299 298 297 296 294 292 289 285 282 280 281 280 278 274 270 269 271 273 274 275 274 276 275 269 260 253 247 241 234 227 220 213 209 211 214 216 217 220 225 229 234 238 240 241 240 237 235 233 230 229 230 231 231 232 233 233 233 234 234 234 235 236 236 236 235 234 234 234 234 233 234 234 236 239 241 243 244 245 245 245 246
305 303 301 300 300 299 296 294 293 290 287 285 282 280 278 277 276 274 270 267 269 271 272 273 273 273 271 265 258 252 249 248 243 235 229 227 224 223 223 225 226 227 230 235 239 244 248 251 252 251 248 243 238 235 233 232 231 231 230 230 231 232 233 233 234 235 235 235 234 234 234 234 233 232 232 234 237 239 240 240 241 242 243 245 246
308 306 305 304 303 299 295 293 291 287 283 281 281 279 276 273 272 270 266 264 267 269 270 271 270 269 265 259 252 248 248 250 249 244 239 237 236 235 235 236 236 237 238 239 241 244 248 251 252 251 248 243 239 237 234 233 232 230 229 228 229 230 232 234 234 235 235 235 235 235 235 234 232 232 232 233 235 237 238 239 240 241 243 246 248
310 309 309 307 304 301 297 294 290 284 279 278 279 278 275 270 266 261 257 256 259 262 264 265 267 267 264 257 251 247 245 245 245 244 242 240 239 239 240 240 239 239 239 237 235 236 237 238 238 237 234 232 231 231 231 231 231 231 231 231 231 233 234 235 235 236 236 236 236 235 233 232 232 233 235 236 237 238 239 241 244 247 250 251 252
315 313 310 307 305 303 300 295 289 283 280 279 278 275 272 268 263 258 253 250 252 255 257 259 261 260 257 254 253 252 250 249 247 245 243 243 242 240 240 242 242 243 244 242 239 237 237 237 236 233 230 229 228 228 228 228 229 231 233 234 235 236 236 237 236 236 236 235 234 232 231 232 235 237 240 242 243 243 245 248 251 255 258 258 255
318 316 314 310 307 305 302 297 291 286 285 283 279 274 270 265 260 256 253 251 249 248 247 244 243 242 242 246 250 252 251 251 251 249 248 248 246 243 241 240 240 243 244 245 243 242 241 240 238 235 232 231 231 230 230 230 230 231 233 234 235 235 235 235 235 234 233 234 235 235 235 235 236 238 241 244 245 248 252 256 259 262 264 263 260
320 320 319 316 312 309 307 304 299 294 290 286 280 275 269 261 253 247 248 249 244 236 228 224 226 229 231 235 239 242 244 245 246 246 248 249 249 248 246 242 239 238 238 238 239 239 238 237 236 233 232 232 231 231 231 232 232 232 233 233 233 234 234 235 235 234 234 237 240 243 245 244 243 244 246 247 249 251 251 253 256 259 262 263 261
325 325 325 325 322 319 314 309 303 297 291 284 276 270 263 254 244 235 237 241 239 231 224 218 216 219 223 226 229 230 233 236 240 242 245 246 247 248 249 246 243 239 236 234 235 236 236 236 235 232 232 233 232 233 233 233 232 232 232 232 233 234 237 240 243 243 242 243 245 248 252 254 253 251 250 250 251 252 252 252 254 257 258 259 260
332 332 332 332 331 328 322 314 305 295 288 282 272 261 253 244 234 222 220 224 223 220 219 216 214 215 218 221 225 228 230 234 237 241 243 245 245 246 247 246 245 241 238 236 237 237 239 240 241 240 240 239 238 237 237 235 234 234 234 234 235 236 239 244 247 249 250 251 251 253 255 256 256 255 254 253 253 253 253 254 256 257 258 259 260
340 339 338 337 337 337 334 327 317 307 298 284 266 253 243 232 219 206 205 208 209 211 214 217 218 218 218 219 223 227 230 233 235 236 237 238 239 240 241 243 243 243 241 241 241 242 243 244 245 245 245 245 243 243 242 241 240 240 240 240 241 242 244 247 249 251 252 253 254 255 256 256 256 256 256 256 255 255 255 256 257 257 258 259 259
348 346 344 343 344 347 348 345 339 336 336 331 306 274 251 233 215 204 201 203 204 206 208 210 213 215 216 218 220 223 226 229 230 231 232 233 235 236 238 241 242 242 242 243 244 246 247 248 248 249 249 248 248 247 247 246 246 246 246 247 247 247 248 249 250 252 253 253 254 255 255 255 256 256 256 256 257 258 258 259 259 258 257 257 257
358 357 356 355 356 360 2 2 0 360 1 6 9 5 358 360 56 184 190 193 194 194 195 199 203 208 211 214 215 218 222 225 228 230 232 233 235 237 239 242 244 245 247 248 249 250 251 251 252 253 252 251 251 250 249 248 248 248 248 249 249 250 251 253 253 254 255 256 256 256 256 257 257 258 259 259 260 260 260 259 258 257 256 255 254